This is the latest recevied weather packets stored in our database for station/object S54L-12. If no packets are shown the sender has not sent any weather packets the latest 10 day(s).
| Time | Temp. | Humidity | Pressure | Rain* | Wind** | Luminosity | Snow |
|---|---|---|---|---|---|---|---|
| 1777581028 | 3.89° C | 44% | 931.5 hPa | - | - | - | - |
| 1777580128 | 3.89° C | 43% | 931.4 hPa | - | - | - | - |
| 1777579229 | 3.89° C | 46% | 931.2 hPa | - | - | - | - |
| 1777578329 | 3.89° C | 45% | 931 hPa | - | - | - | - |
| 1777577429 | 3.89° C | 46% | 930.9 hPa | - | - | - | - |
| 1777576529 | 4.44° C | 46% | 930.7 hPa | - | - | - | - |
| 1777575629 | 4.44° C | 45% | 930.7 hPa | - | - | - | - |
| 1777574729 | 5° C | 44% | 930.4 hPa | - | - | - | - |
| 1777573829 | 5° C | 44% | 930 hPa | - | - | - | - |
| 1777572029 | 5.56° C | 43% | 929.8 hPa | - | - | - | - |
| 1777571129 | 6.11° C | 42% | 929.7 hPa | - | - | - | - |
| 1777570229 | 6.67° C | 40% | 929.7 hPa | - | - | - | - |
| 1777569329 | 7.22° C | 39% | 929.7 hPa | - | - | - | - |
| 1777568429 | 7.78° C | 39% | 929.5 hPa | - | - | - | - |
| 1777567529 | 8.33° C | 38% | 929.5 hPa | - | - | - | - |
| 1777566629 | 8.89° C | 35% | 929.5 hPa | - | - | - | - |
| 1777565729 | 10° C | 35% | 929.5 hPa | - | - | - | - |
| 1777564829 | 10.56° C | 35% | 929.6 hPa | - | - | - | - |
| 1777563929 | 11.11° C | 33% | 929.6 hPa | - | - | - | - |
| 1777563028 | 10.56° C | 33% | 929.6 hPa | - | - | - | - |
| 1777562128 | 10° C | 33% | 929.6 hPa | - | - | - | - |
| 1777561228 | 10° C | 34% | 929.8 hPa | - | - | - | - |
| 1777560329 | 10° C | 34% | 929.7 hPa | - | - | - | - |
| 1777559428 | 10° C | 35% | 929.7 hPa | - | - | - | - |
| 1777558528 | 10° C | 35% | 929.7 hPa | - | - | - | - |
* Rain since midnight (hover to see other rain measurements)
** Current wind speed in m/s (hover to see current wind gust speed)